Regional Weather Roundup
Issued by NWS Northern Indiana

Home | Current Version | Previous Version | Text Only | Print | Product List | Glossary On
Versions: 1 2 3 4 5 6 7 8 9 10 11 12 13 14 15 16 17 18 19 20 21 22 23 24 25 26 27 28 29 30 31 32 33 34 35 36 37 38 39 40 41 42 43 44 45 46 47 48 49 50
000
ASUS43 KIWX 230210
RWRIWX

KIWX WEATHER ROUNDUP
NATIONAL WEATHER SERVICE NORTHERN INDIANA
900 PM EST WED FEB 22 2017

NOTE: "FAIR" INDICATES FEW OR NO CLOUDS BELOW 12,000 FEET WITH NO
SIGNIFICANT WEATHER AND/OR OBSTRUCTIONS TO VISIBILITY.

* THESE STATIONS ARE NOT UNDER NWS QUALITY CONTROL. THEY ALSO MAY NOT
  REPORT WEATHER SUCH AS PRECIPITATION OR FOG.

INZ001>027-230300-
NORTHERN INDIANA

CITY           SKY/WX    TMP DP  RH WIND       PRES   REMARKS
GARY*          CLEAR     63  54  72 S7        29.64S
VALPARAISO     CLEAR     58  54  86 S12G20    29.66F
MICHIGAN CITY* CLEAR     59  54  82 S13G18    29.65F
LAPORTE*       CLEAR     57  53  85 S9        29.67F
KNOX*          CLEAR     55  36  47 S10       29.68S
SOUTH BEND     CLEAR     56  52  86 S10       29.68F
ELKHART*       CLEAR     55  52  88 S7        29.69F
GOSHEN         CLEAR     57  51  80 S10       29.69F
MONTICELLO*    CLEAR     59  54  83 S6        29.69S
LOGANSPORT*    CLEAR     55  52  88 S10       29.71F
ROCHESTER*     CLEAR     57  54  88 S6        29.70F
WARSAW*        CLEAR     55  52  88 S3        29.70F
ANGOLA*        PTCLDY    55  46  71 S7        29.71F
FORT WAYNE     PTCLDY    54  50  86 S9        29.74F
HUNTINGTON*    CLEAR     55  54  95 S6        29.73F
PERU/GRISSOM   CLEAR     58  58 100 S12       29.71F
MARION*        CLEAR     55  53  91 S9        29.75S

$$
INZ028>050-230300-
CENTRAL INDIANA

CITY           SKY/WX    TMP DP  RH WIND       PRES   REMARKS
LAFAYETTE      CLEAR     61  55  81 S9        29.70S
KOKOMO*        CLEAR     57  53  86 S9        29.74F
MUNCIE*        CLEAR     60  54  80 S10       29.76F
INDIANAPOLIS   CLOUDY    59  54  83 S10       29.75F

$$
MIZ043>046-050>051-056>058-064>065-071>073-077>080-230300-
SOUTHWEST LOWER MICHIGAN

CITY           SKY/WX    TMP DP  RH WIND       PRES   REMARKS
BATTLE CREEK   CLEAR     56  52  86 S13       29.68F
BENTON HARBOR  CLEAR     59  53  80 S13       29.63F
COLDWATER*     CLEAR     56  52  88 S9        29.70F
HILLSDALE*     CLOUDY    55  52  88 S8        29.71F
HOLLAND        CLEAR     58  52  80 S16       29.61F
GRAND RAPIDS   PTCLDY    57  50  77 S16G23    29.62F
KALAMAZOO      CLEAR     56  50  80 S10       29.67F
STURGIS*       CLEAR     55  52  89 S9        29.68F
THREE RIVERS*  FAIR      55  52  89 S9        29.68F

$$
OHZ001>008-015>018-024>025-230300-
NORTHWEST OHIO

CITY           SKY/WX    TMP DP  RH WIND       PRES   REMARKS
WAUSEON*       CLOUDY    57  54  88 S8        29.74F
DEFIANCE       PTCLDY    57  51  80 S8        29.75S
FINDLAY        CLOUDY    59  53  80 S12       29.77F
TOLEDO EXPRESS CLOUDY    58  56  93 S7        29.75S
TOLEDO METCALF CLOUDY    59  55  87 S12       29.77S
LIMA           CLOUDY    58  55  90 S7        29.78F

$$
AND FOR LAKE MICHIGAN COASTAL AND OPEN LAKE BUOY OBSERVATIONS

STATION/POSITION TEMP    WIND        PRES    VSBY  WAVE
                 AIR SEA DIR/SP/G                  HT/PER
                 (F)     (DEG/KT/KT) (MB)    (MI)  (FT/S)
CALUMET HARBOR    62     200/ 12/ 17 1003.1R
MICHIGAN CITY     60     150/ 14/ 17   N/A
BURNS HARBOR      60     180/ 15/ 20 1004.1F

$$
&&




USA.gov is the U.S. government's official web portal to all federal, state and local government web resources and services.